Terminal Aerodrome Forecast
Issued by NWS

Home | Current Version | Previous Version | Text Only | Print | Product List | Glossary On
Versions: 1 2 3 4 5 6 7 8 9 10 11 12 13
000
FTUS45 KRIW 272335
TAFCOD
TAF
KCOD 272335Z 2800/2824 29010G18KT 4SM FU VCTS SCT060CB BKN090
     FM280300 23012G18KT P6SM SCT120
     FM281200 VRB06KT P6SM FEW100 SCT200
     FM282000 12008KT P6SM SCT150
      AMD LTD TO CLD VIS AND WIND=

USA.gov is the U.S. government's official web portal to all federal, state and local government web resources and services.